Vertical_Velocity
-2 -3 -2 -1 -1 -1 -1 -1 -1 -0 -2 -1 -2 -1 -1 -2 -2 -1 -2 -1 -1 0
1 -0 -1 -2 -1 -1 -0 1 1 -0 -2 -1 -2 -0 1 -0 2 -0 2 4 3 1
2 1 1 1 1 -1 -1 -1 -1 -1 1 2 3 3 1 -1 3 0 2 4 3 5
1 0 1 1 -0 -2 -2 -1 -2 -3 0 0 -1 1 1 2 2 -1 1 2 1 0
-1 -0 0 -1 -2 -1 1 -1 -2 -0 1 -1 -0 1 0 1 1 0 -0 2 -3 0
-1 -2 -4 -4 -5 -3 -3 -3 -1 -4 -5 -3 -1 -1 -0 -2 1 -1 -0 1 -1 5
-3 -3 -4 -4 -3 -4 -3 -4 -3 -3 -3 -5 -4 -4 -3 -5 -4 -2 0 1 1 3
-2 -1 -2 -2 -2 -2 -4 -4 -5 -5 1 1 -1 -0 -2 -3 -3 -5 -5 -3 1 3
-1 -2 -2 -2 -2 -2 -0 -0 0 0 -4 -3 -2 -0 4 1 -2 -0 -1 -1 2 7
-4 -4 -4 -3 -3 -3 -1 -2 -2 -1 -4 -0 2 -2 -1 3 -5 -4 -1 1 2 -1
-1 -2 -4 -6 -8 -8 -8 -7 -6 -3 -4 -5 2 -1 0 0 -4 -4 0 0 6 1
-4 -4 -5 -3 -3 -5 -6 -6 -7 -7 -2 -6 4 3 1 -5 -5 -5 -3 -1 -14 39
-5 -4 -3 -3 -5 -5 -5 -3 -3 -1 -4 -6 -13 -0 -1 11 -8 -8 -11 3 0 11
-5 -3 -4 0 -2 -2 -1 -4 -1 -3 5 -0 -1 -6 -3 -2 -5 -0 -2 4 -1 18
Height
3124 3124 3124 3124 3125 3124 3124 3123 3122 3121 3121 3120 3118 3117 3115 3113 3112 3109 3108 3107 3105 3103
3120 3120 3121 3121 3120 3120 3119 3118 3117 3115 3114 3113 3111 3109 3106 3104 3104 3100 3098 3096 3094 3091
3116 3117 3116 3116 3116 3115 3113 3112 3110 3108 3105 3103 3101 3098 3094 3092 3090 3087 3086 3083 3081 3079
3111 3111 3111 3110 3108 3107 3105 3102 3099 3096 3094 3091 3088 3084 3080 3078 3076 3073 3072 3071 3068 3067
3106 3104 3103 3100 3098 3095 3092 3089 3086 3084 3081 3079 3076 3073 3070 3067 3064 3061 3059 3058 3055 3054
3096 3094 3093 3090 3088 3085 3082 3079 3077 3073 3071 3069 3066 3063 3060 3057 3054 3050 3047 3046 3043 3042
3087 3085 3082 3080 3078 3075 3072 3069 3067 3064 3060 3057 3054 3051 3048 3045 3042 3039 3036 3033 3030 3029
3077 3075 3073 3071 3068 3065 3062 3058 3054 3051 3048 3044 3039 3036 3032 3029 3026 3023 3021 3020 3018 3017
3068 3066 3063 3061 3058 3055 3051 3047 3043 3038 3032 3028 3025 3021 3017 3012 3008 3006 3003 3002 3002 3002
3059 3057 3054 3050 3047 3043 3040 3035 3031 3027 3021 3017 3012 3008 3003 2999 2994 2989 2987 2986 2988 2989
3050 3047 3044 3041 3038 3034 3029 3024 3020 3016 3012 3007 3003 2997 2992 2986 2982 2977 2973 2971 2972 2974
3043 3040 3036 3033 3028 3024 3019 3015 3011 3006 3001 2997 2993 2987 2982 2976 2970 2965 2962 2958 2962 2961
3034 3030 3026 3021 3017 3013 3010 3006 3002 2999 2994 2989 2983 2979 2973 2966 2958 2953 2950 2947 2949 2952
3025 3021 3016 3012 3008 3005 3002 2998 2995 2990 2986 2979 2974 2968 2961 2955 2947 2943 2939 2938 2941 2945